Minot Air Force Base, ND

8:21 PM CST on February 11, 2016 (GMT -0600)
Minot Air Force Base

Weather History for KMIB - October, 2012

Change the Weather History Date:

Friday, October 19, 2012

  Actual Average Record
Temperature  
Mean Temperature 37 °F -  
Max Temperature 44 °F 50 °F 68 °F (2014)
Min Temperature 31 °F 29 °F 18 °F (2011)
Degree Days  
Heating Degree Days 28    
Moisture  
Dew Point 31 °F    
Average Humidity 78    
Maximum Humidity 93    
Minimum Humidity 65    
Precipitation  
Precipitation 0.00 in - - ()
Sea Level Pressure  
Sea Level Pressure 29.87 in    
Wind  
Wind Speed 12 mph (NNE)    
Max Wind Speed 21 mph    
Max Gust Speed 25 mph    
Visibility 10 miles    
Events      
Averages and records for this station are not official NWS values.
T = Trace of Precipitation, MM = Missing Value Source: NWS Daily Summary

Daily Weather History Graph

Daily Weather History Graph

Search for Another Location

Airport or City:

Trip Planner

Search our weather history database for the weather conditions in past years. The results will help you decide how hot, cold, wet, or windy it might be!

Date:

Astronomy

Oct. 19, 2012 Rise Set
Actual Time 8:12 AM CDT 6:47 PM CDT
Civil Twilight 7:40 AM CDT 7:19 PM CDT
Nautical Twilight 7:03 AM CDT 7:55 PM CDT
Astronomical Twilight 6:27 AM CDT 8:31 PM CDT
Moon 1:13 PM CDT (10/19) 10:11 PM CDT (10/19)
Length of Visible Light 11h 39m
Length of Day
10h 35m
Waxing Crescent, 24% of the Moon is Illuminated
Oct 19
Waxing Crescent
Oct 21
First Quarter
Oct 29
Full
Nov 6
Last Quarter
Nov 13
New

Hourly Weather History & Observations

Time (CDT) Temp. Windchill Dew Point Humidity Pressure Visibility Wind Dir Wind Speed Gust Speed Precip Events Conditions
12:55 AM 41.2 °F 31.9 °F 32.9 °F 72% 29.99 in 10.0 mi North 20.7 mph 25.3 mph N/A   Overcast
1:55 AM 39.7 °F 30.3 °F 31.8 °F 73% 29.98 in 10.0 mi NNW 19.6 mph - N/A   Overcast
2:55 AM 39.0 °F 30.3 °F 30.9 °F 73% 29.98 in 10.0 mi NNW 16.1 mph - N/A   Overcast
3:10 AM 37.4 °F 28.5 °F 30.2 °F 75% 29.99 in 10.0 mi NNW 15.0 mph - N/A   Scattered Clouds
3:55 AM 36.7 °F 27.6 °F 30.2 °F 77% 29.97 in 10.0 mi NNW 15.0 mph - N/A   Clear
4:55 AM 34.7 °F 26.4 °F 29.5 °F 81% 29.97 in 10.0 mi NW 11.5 mph - N/A   Clear
5:55 AM 31.8 °F 23.9 °F 28.4 °F 87% 29.97 in 10.0 mi NNW 9.2 mph - N/A   Scattered Clouds
5:59 AM 32.0 °F 24.2 °F 28.4 °F 87% 29.96 in 10.0 mi NNW 9.2 mph - N/A   Mostly Cloudy
6:55 AM 34.0 °F 27.2 °F 29.7 °F 84% 29.96 in 10.0 mi North 8.1 mph - N/A   Overcast
7:55 AM 34.2 °F 28.2 °F 29.8 °F 84% 29.96 in 10.0 mi North 6.9 mph - N/A   Overcast
8:55 AM 34.9 °F 28.3 °F 30.2 °F 83% 29.96 in 10.0 mi NNW 8.1 mph - N/A   Overcast
9:55 AM 35.4 °F 30.5 °F 29.8 °F 80% 29.94 in 10.0 mi North 5.8 mph - N/A   Overcast
10:55 AM 36.5 °F 32.7 °F 30.2 °F 78% 29.93 in 10.0 mi NNW 4.6 mph - N/A   Overcast
11:55 AM 37.8 °F - 30.6 °F 75% 29.91 in 10.0 mi Calm Calm - N/A   Overcast
12:55 PM 39.4 °F - 31.1 °F 72% 29.88 in 10.0 mi Calm Calm - N/A   Overcast
1:47 PM 41.0 °F - 32.0 °F 70% 29.85 in 10.0 mi Calm Calm - N/A   Mostly Cloudy
1:55 PM 40.8 °F - 31.5 °F 69% 29.85 in 10.0 mi Calm Calm - N/A   Scattered Clouds
2:55 PM 41.7 °F 39.8 °F 32.0 °F 68% 29.81 in 10.0 mi South 3.5 mph - N/A   Mostly Cloudy
3:55 PM 43.3 °F 39.2 °F 32.5 °F 66% 29.78 in 10.0 mi SE 6.9 mph - N/A   Scattered Clouds
4:55 PM 43.9 °F 39.3 °F 32.9 °F 65% 29.77 in 10.0 mi SSE 8.1 mph - N/A   Clear
5:55 PM 42.3 °F 35.9 °F 33.6 °F 71% 29.75 in 10.0 mi SE 11.5 mph - N/A   Clear
6:55 PM 39.4 °F 33.8 °F 33.4 °F 79% 29.74 in 10.0 mi SE 8.1 mph - N/A   Clear
7:55 PM 37.8 °F 31.3 °F 33.1 °F 83% 29.74 in 10.0 mi SSE 9.2 mph - N/A   Clear
8:55 PM 36.9 °F 29.6 °F 33.1 °F 86% 29.72 in 10.0 mi SE 10.4 mph - N/A   Clear
9:55 PM 36.7 °F 29.4 °F 33.3 °F 87% 29.70 in 10.0 mi SE 10.4 mph - N/A   Clear
10:55 PM 36.0 °F 29.0 °F 33.1 °F 89% 29.67 in 10.0 mi SSE 9.2 mph - N/A   Clear
11:55 PM 33.4 °F 26.6 °F 31.6 °F 93% 29.67 in 10.0 mi SE 8.1 mph - N/A   Clear